Cloud_Cover
2 0 0 0 0 5 5 5 5 5 5 0 0 16 10 2 0 0 0 0 0 2
0 0 0 0 5 5 5 18 5 5 5 5 2 0 49 5 0 0 1 37 6 2
0 0 0 5 6 5 5 5 5 5 5 5 0 0 11 77 0 1 0 66 5 5
0 2 5 5 5 5 24 5 5 5 5 6 0 0 0 4 3 3 12 18 80 5
5 5 5 5 5 36 5 5 26 33 72 43 0 0 0 0 94 0 4 5 5 5
0 2 0 2 75 88 55 26 100 59 78 17 2 0 0 0 2 0 0 2 6 100
5 4 5 76 100 59 34 99 100 100 44 6 5 1 0 1 2 0 0 6 5 28
62 5 90 100 93 100 48 100 100 100 6 5 2 3 4 2 0 0 0 1 5 5
94 100 100 82 100 100 98 100 100 40 8 49 5 5 5 2 0 0 0 2 3 58
78 97 100 100 100 100 100 82 100 12 93 91 5 4 0 0 0 0 0 2 8 18
100 100 100 98 93 100 100 100 98 95 13 5 5 1 0 0 0 0 0 0 10 75
100 100 100 92 100 100 100 100 100 68 6 3 2 5 0 5 5 2 5 42 83 34
100 100 100 100 100 100 100 100 100 31 5 5 1 46 64 79 62 5 4 4 4 5
100 100 100 100 100 100 100 100 100 7 5 5 69 97 89 42 13 2 0 0 1 5